Burlington, NC

7:25 PM EDT on May 23, 2018 (GMT -0400)
Burlington-Alamance Regional

Weather History for KBUY - March, 2014

Change the Weather History Date:

Monday, March 17, 2014

  Actual Average Record
Temperature  
Mean Temperature 33 °F -  
Max Temperature 36 °F 59 °F 82 °F (2015)
Min Temperature 30 °F 35 °F 21 °F (2017)
Degree Days  
Heating Degree Days 32    
Moisture  
Dew Point 28 °F    
Average Humidity 87    
Maximum Humidity 93    
Minimum Humidity 81    
Precipitation  
Precipitation 0.49 in - - ()
Sea Level Pressure  
Sea Level Pressure 29.91 in    
Wind  
Wind Speed 11 mph (NNE)    
Max Wind Speed 17 mph    
Max Gust Speed 24 mph    
Visibility 5 miles    
Events Rain , Snow    
Averages and records for this station are not official NWS values.
T = Trace of Precipitation, MM = Missing Value Source: NWS Daily Summary

Daily Weather History Graph

Daily Weather History Graph

Search for Another Location

Airport or City:

Astronomy

Mar. 17, 2014 Rise Set
Actual Time 7:25 AM EDT 7:27 PM EDT
Civil Twilight 7:00 AM EDT 7:52 PM EDT
Nautical Twilight 6:30 AM EDT 8:22 PM EDT
Astronomical Twilight 6:00 AM EDT 8:52 PM EDT
Moon 8:38 PM EDT (3/17) 7:42 AM EDT (3/17)
Length of Visible Light 12h 52m
Length of Day
12h 01m
Full, 99% of the Moon is Illuminated
Mar 17
Full
Mar 23
Last Quarter
Mar 30
New
Apr 7
First Quarter
Apr 15
Full

Hourly Weather History & Observations

Time (EDT) Temp. Windchill Dew Point Humidity Pressure Visibility Wind Dir Wind Speed Gust Speed Precip Events Conditions
12:15 AM 36.0 °F 28.0 °F 33.1 °F 89% 29.88 in 3.0 mi NNE 11.5 mph 20.7 mph 0.01 in Rain Light Rain
12:54 AM 36.0 °F 29.0 °F 33.1 °F 89% 29.87 in 4.0 mi NNE 9.2 mph 18.4 mph 0.02 in Rain Light Rain
1:54 AM 35.1 °F 25.2 °F 32.0 °F 89% 29.87 in 4.0 mi North 16.1 mph 21.9 mph 0.01 in   Overcast
2:21 AM 35.1 °F 25.9 °F 30.9 °F 85% 29.86 in 5.0 mi NNE 13.8 mph 24.2 mph 0.00 in Rain Light Rain
2:30 AM 35.1 °F 25.5 °F 30.9 °F 85% 29.86 in 5.0 mi NNE 15.0 mph - 0.00 in Rain Light Rain
2:54 AM 35.1 °F 25.9 °F 30.9 °F 85% 29.86 in 4.0 mi North 13.8 mph - 0.00 in   Overcast
3:54 AM 33.1 °F 23.4 °F 30.0 °F 89% 29.87 in 6.0 mi NNE 13.8 mph - 0.01 in Rain Light Rain
4:32 AM 33.1 °F 23.9 °F 30.0 °F 89% 29.85 in 5.0 mi North 12.7 mph 17.3 mph 0.00 in Rain Light Freezing Rain
4:41 AM 33.1 °F 24.9 °F 28.9 °F 85% 29.85 in 6.0 mi NNE 10.4 mph 19.6 mph 0.00 in   Overcast
4:54 AM 33.1 °F 25.5 °F 28.9 °F 85% 29.85 in 6.0 mi NNE 9.2 mph - 0.00 in   Overcast
5:38 AM 33.1 °F 25.5 °F 28.9 °F 85% 29.84 in 10.0 mi NNE 9.2 mph - N/A   Overcast
5:50 AM 33.8 °F 27.0 °F 28.4 °F 81% 29.84 in 7.0 mi NNE 8.1 mph - N/A   Overcast
5:54 AM 33.1 °F 25.5 °F 28.9 °F 85% 29.85 in 6.0 mi NNE 9.2 mph - N/A   Overcast
6:36 AM 32.0 °F 20.8 °F 28.0 °F 85% 29.85 in 9.0 mi NNE 17.3 mph 21.9 mph N/A   Overcast
6:54 AM 32.0 °F 22.5 °F 28.0 °F 85% 29.87 in 10.0 mi NNE 12.7 mph 20.7 mph N/A   Overcast
7:54 AM 32.0 °F 23.6 °F 28.0 °F 85% 29.90 in 6.0 mi NE 10.4 mph - N/A   Overcast
8:07 AM 32.0 °F 23.0 °F 28.0 °F 85% 29.89 in 3.0 mi NE 11.5 mph - N/A   Overcast
8:11 AM 30.9 °F 22.2 °F 28.0 °F 89% 29.89 in 2.5 mi NE 10.4 mph - 0.00 in Rain Light Freezing Rain
8:21 AM 30.9 °F 20.7 °F 28.0 °F 89% 29.89 in 3.0 mi NNE 13.8 mph 20.7 mph 0.00 in Rain Light Freezing Rain
8:28 AM 30.9 °F 20.7 °F 28.0 °F 89% 29.89 in 4.0 mi NNE 13.8 mph 20.7 mph 0.00 in   Overcast
8:52 AM 30.2 °F 20.8 °F 28.4 °F 93% 29.89 in 2.5 mi NNE 11.5 mph - 0.00 in   Overcast
8:54 AM 30.9 °F 21.2 °F 28.0 °F 89% 29.90 in 2.5 mi NNE 12.7 mph - 0.00 in   Overcast
8:58 AM 30.9 °F 21.7 °F 28.0 °F 89% 29.89 in 3.0 mi NNE 11.5 mph - 0.00 in Rain Light Freezing Rain
9:08 AM 30.9 °F 22.2 °F 28.0 °F 89% 29.89 in 2.5 mi NNE 10.4 mph - 0.01 in Rain Light Freezing Rain
9:20 AM 30.9 °F 22.8 °F 28.0 °F 89% 29.89 in 2.5 mi NNE 9.2 mph - 0.02 in Rain Light Freezing Rain
9:27 AM 30.9 °F 20.2 °F 28.0 °F 89% 29.88 in 4.0 mi NNE 15.0 mph 20.7 mph 0.02 in Rain Light Freezing Rain
9:44 AM 30.9 °F 21.7 °F 28.0 °F 89% 29.88 in 6.0 mi NNE 11.5 mph 20.7 mph 0.02 in   Overcast
9:54 AM 30.9 °F 20.7 °F 27.0 °F 85% 29.89 in 4.0 mi NNE 13.8 mph 20.7 mph 0.02 in Rain Light Freezing Rain
10:42 AM 30.9 °F 23.5 °F 28.0 °F 89% 29.91 in 2.0 mi NNE 8.1 mph 21.9 mph 0.01 in Rain Light Freezing Rain
10:54 AM 30.9 °F 20.7 °F 27.0 °F 85% 29.92 in 3.0 mi NNE 13.8 mph - 0.01 in Rain Light Freezing Rain
11:04 AM 30.9 °F 22.2 °F 28.0 °F 89% 29.93 in 4.0 mi NNE 10.4 mph - 0.00 in   Overcast
11:13 AM 30.9 °F 22.2 °F 28.0 °F 89% 29.93 in 3.0 mi NNE 10.4 mph - 0.00 in Rain Light Freezing Rain
11:24 AM 30.9 °F 21.7 °F 28.0 °F 89% 29.93 in 4.0 mi NNE 11.5 mph - 0.00 in   Overcast
11:26 AM 30.9 °F 22.2 °F 28.0 °F 89% 29.93 in 4.0 mi NNE 10.4 mph - 0.00 in   Overcast
11:46 AM 30.9 °F 22.8 °F 27.0 °F 85% 29.93 in 10.0 mi NNE 9.2 mph - 0.00 in   Overcast
11:54 AM 30.9 °F 21.2 °F 27.0 °F 85% 29.95 in 10.0 mi NNE 12.7 mph - 0.00 in   Overcast
12:18 PM 30.9 °F 21.7 °F 27.0 °F 85% 29.93 in 5.0 mi NE 11.5 mph - 0.03 in Rain Light Freezing Rain
12:45 PM 32.0 °F 24.2 °F 28.0 °F 85% 29.91 in 4.0 mi NE 9.2 mph 18.4 mph 0.05 in Rain Light Freezing Rain
12:54 PM 32.0 °F 23.6 °F 28.0 °F 85% 29.93 in 6.0 mi NE 10.4 mph - 0.06 in Rain Light Freezing Rain
1:07 PM 32.0 °F 24.2 °F 28.0 °F 85% 29.92 in 5.0 mi NNE 9.2 mph - 0.01 in Rain Light Freezing Rain
1:18 PM 30.9 °F 22.2 °F 28.0 °F 89% 29.91 in 4.0 mi NE 10.4 mph - 0.02 in Rain Light Freezing Rain
1:42 PM 32.0 °F 23.0 °F 28.0 °F 85% 29.90 in 4.0 mi NNE 11.5 mph - 0.04 in Rain Light Freezing Rain
1:54 PM 30.9 °F 21.2 °F 28.0 °F 89% 29.91 in 3.0 mi NNE 12.7 mph 17.3 mph 0.05 in Rain Light Freezing Rain
2:09 PM 32.0 °F 24.2 °F 28.0 °F 85% 29.91 in 6.0 mi North 9.2 mph - 0.00 in   Overcast
2:35 PM 32.0 °F 26.4 °F 28.0 °F 85% 29.92 in 2.5 mi North 5.8 mph - 0.02 in   Overcast
2:43 PM 32.0 °F 24.8 °F 28.0 °F 85% 29.92 in 2.5 mi NNE 8.1 mph - 0.03 in Rain Light Freezing Rain
2:54 PM 32.0 °F 23.6 °F 28.0 °F 85% 29.94 in 2.0 mi North 10.4 mph - 0.05 in Rain Light Freezing Rain
2:58 PM 30.9 °F 23.5 °F 28.0 °F 89% 29.92 in 1.8 mi North 8.1 mph - 0.00 in Rain Light Freezing Rain
3:07 PM 30.9 °F 21.7 °F 28.0 °F 89% 29.91 in 1.2 mi NNE 11.5 mph - 0.01 in Rain Light Freezing Rain
3:13 PM 30.9 °F 24.3 °F 27.0 °F 85% 29.91 in 2.0 mi NNE 6.9 mph - 0.02 in   Overcast
3:19 PM 30.9 °F 21.7 °F 27.0 °F 85% 29.90 in 3.0 mi NNE 11.5 mph - 0.02 in   Overcast
3:27 PM 30.9 °F 21.2 °F 27.0 °F 85% 29.90 in 5.0 mi NNE 12.7 mph - 0.02 in   Overcast
3:35 PM 30.9 °F 23.5 °F 27.0 °F 85% 29.90 in 6.0 mi NNE 8.1 mph 17.3 mph 0.02 in   Overcast
3:49 PM 30.2 °F 20.2 °F 26.6 °F 86% 29.89 in 2.5 mi NNE 12.7 mph - 0.03 in Snow Light Snow
3:54 PM 30.9 °F 21.2 °F 27.0 °F 85% 29.91 in 2.5 mi NNE 12.7 mph - 0.03 in Snow Light Snow
4:01 PM 30.9 °F 21.7 °F 27.0 °F 85% 29.90 in 5.0 mi North 11.5 mph - 0.00 in   Overcast
4:08 PM 30.9 °F 23.5 °F 27.0 °F 85% 29.91 in 6.0 mi NNE 8.1 mph - 0.00 in   Overcast
4:39 PM 30.9 °F 22.8 °F 27.0 °F 85% 29.89 in 10.0 mi NNE 9.2 mph - 0.00 in   Overcast
4:49 PM 30.2 °F 20.8 °F 26.6 °F 86% 29.90 in 10.0 mi North 11.5 mph - 0.00 in   Overcast
4:54 PM 30.9 °F 21.7 °F 27.0 °F 85% 29.91 in 10.0 mi North 11.5 mph - 0.00 in   Overcast
5:30 PM 30.9 °F 22.8 °F 27.0 °F 85% 29.90 in 10.0 mi NNE 9.2 mph - N/A   Overcast
5:54 PM 30.0 °F 20.5 °F 26.1 °F 85% 29.92 in 10.0 mi NNE 11.5 mph - N/A   Overcast
6:13 PM 30.0 °F 22.4 °F 26.1 °F 85% 29.92 in 10.0 mi NNE 8.1 mph - N/A   Overcast
6:54 PM 30.0 °F 19.5 °F 25.0 °F 82% 29.93 in 10.0 mi NE 13.8 mph - 0.00 in   Overcast
7:14 PM 30.0 °F 21.1 °F 26.1 °F 85% 29.91 in 5.0 mi NE 10.4 mph 19.6 mph 0.00 in Rain Light Freezing Rain
7:54 PM 30.0 °F 22.4 °F 26.1 °F 85% 29.95 in 8.0 mi NNE 8.1 mph - 0.01 in Rain Light Freezing Rain
8:04 PM 30.0 °F 20.5 °F 26.1 °F 85% 29.93 in 7.0 mi NNE 11.5 mph - 0.00 in Rain Light Freezing Rain
8:26 PM 30.0 °F 21.7 °F 27.0 °F 88% 29.94 in 5.0 mi NNE 9.2 mph - 0.01 in Rain Light Freezing Rain
8:37 PM 30.0 °F 21.1 °F 27.0 °F 88% 29.94 in 5.0 mi North 10.4 mph - 0.02 in Rain Light Freezing Rain
8:54 PM 30.0 °F 20.5 °F 27.0 °F 88% 29.96 in 4.0 mi North 11.5 mph - 0.04 in Rain Light Freezing Rain
9:10 PM 30.0 °F 20.5 °F 27.0 °F 88% 29.95 in 5.0 mi North 11.5 mph - 0.02 in Rain Light Freezing Rain
9:54 PM 30.0 °F 20.0 °F 27.0 °F 88% 29.98 in 5.0 mi North 12.7 mph - 0.06 in Rain Light Freezing Rain
10:04 PM 30.9 °F 22.2 °F 27.0 °F 85% 29.97 in 4.0 mi North 10.4 mph - 0.02 in Rain Light Freezing Rain
10:34 PM 30.0 °F 21.7 °F 27.0 °F 88% 29.97 in 5.0 mi North 9.2 mph - 0.07 in Rain Light Freezing Rain
10:43 PM 30.0 °F 21.7 °F 27.0 °F 88% 29.98 in 5.0 mi North 9.2 mph - 0.08 in Rain Light Freezing Rain
10:54 PM 30.0 °F 22.4 °F 27.0 °F 88% 29.99 in 4.0 mi North 8.1 mph - 0.09 in Rain Light Freezing Rain
11:04 PM 30.0 °F 21.1 °F 26.1 °F 85% 29.97 in 4.0 mi NNE 10.4 mph - 0.01 in Rain Light Freezing Rain
11:29 PM 30.0 °F 21.7 °F 26.1 °F 85% 29.97 in 7.0 mi NNE 9.2 mph - 0.02 in Rain Light Freezing Rain
11:42 PM 30.0 °F 26.5 °F 27.0 °F 88% 30.00 in 7.0 mi North 3.5 mph - 0.03 in Rain Light Freezing Rain
11:54 PM 30.0 °F 21.7 °F 26.1 °F 85% 30.01 in 3.0 mi North 9.2 mph - 0.03 in Snow Light Snow